EW5663 Weather Reports


time (UTC)temp
F
wind
direction
speed
knots
gust
knots
rain 1hr
in
rain 24hr
in
rain mn
in
humidity
%
barometer
mb
20260505211609 39 359 2.6 6.1 0.01 0.34 0.24 89 999.1
20260505210046 40 29 1.7 5.2 0.01 0.34 0.24 90 999.1
20260505204556 39 10 0.9 7.0 0.01 0.34 0.24 90 999.5
20260505203046 40 25 1.7 4.3 0.01 0.34 0.24 90 999.6
20260505201543 40 79 0.0 5.2 0.00 0.33 0.23 90 999.6
20260505200042 39 345 0.0 6.1 0.00 0.33 0.23 92 999.6
20260505194542 39 359 0.9 5.2 0.00 0.33 0.23 93 999.5
20260505193041 39 354 0.0 6.1 0.00 0.33 0.23 94 999.4
20260505191541 38 345 0.0 6.1 0.01 0.33 0.23 94 999.4
20260505190040 38 4 0.0 7.0 0.02 0.33 0.23 94 999.6
20260505184542 38 359 0.9 5.2 0.02 0.33 0.23 93 999.6
20260505183039 38 359 0.0 5.2 0.03 0.33 0.23 94 999.8
20260505181554 38 359 0.0 4.3 0.02 0.32 0.22 94 999.7
20260505180042 37 4 0.0 4.3 0.03 0.31 0.21 94 999.8
20260505174540 37 4 0.0 3.5 0.03 0.31 0.21 94 999.9
20260505173037 37 58 0.0 3.5 0.02 0.30 0.20 94 999.9
20260505171541 37 60 0.0 0.9 0.03 0.30 0.20 94 999.8
20260505170036 37 56 0.0 3.5 0.01 0.28 0.18 94 999.8
20260505164536 37 359 0.0 3.5 0.01 0.28 0.18 94 999.9
20260505163036 37 324 0.0 4.3 0.01 0.28 0.18 94 999.9
20260505161534 37 359 0.0 4.3 0.01 0.27 0.17 94 999.8
20260505153041 36 11 0.0 3.5 0.04 0.27 0.17 94 999.7
20260505151531 36 291 0.0 1.7 0.04 0.26 0.16 94 999.7
20260505124515 37 8 1.7 7.8 0.05 0.20 0.10 93 997.9
20260505123012 37 359 1.7 7.8 0.07 0.19 0.09 93 997.4
20260505121512 37 359 3.5 9.6 0.06 0.18 0.08 93 997.4
20260505120008 37 359 6.1 17.4 0.05 0.17 0.07 92 996.9
20260505114502 39 285 2.6 7.8 0.03 0.15 0.05 93 996.6
20260505113104 39 243 2.6 7.8 0.00 0.12 0.02 93 996.5
20260505111557 39 359 4.3 9.6 0.01 0.12 0.02 93 996.4
20260505110110 40 359 0.9 7.8 0.02 0.12 0.02 93 995.9
20260505101546 42 267 3.5 7.8 0.01 0.11 0.01 93 994.8
20260505100043 42 359 3.5 9.6 0.00 0.10 0.00 92 994.8
20260505094539 43 359 3.5 9.6 0.00 0.10 0.00 91 994.6
20260505093035 45 251 5.2 9.6 0.00 0.10 0.00 90 994.6
20260505091533 47 359 0.0 1.7 0.00 0.10 0.00 92 994.4
20260505090036 47 359 0.0 1.7 0.00 0.10 0.00 93 994.2
20260505084535 47 164 0.0 1.7 0.00 0.10 0.00 93 994.4
20260505083031 47 164 0.0 0.0 0.00 0.10 0.00 92 994.4
20260505081529 46 164 0.0 0.0 0.00 0.10 0.00 92 994.5
20260505080028 47 163 0.0 0.0 0.00 0.10 0.00 92 994.3
20260505074530 47 163 0.0 0.0 0.00 0.10 0.00 92 994.4
20260505073026 47 163 0.0 0.0 0.00 0.10 0.00 92 994.7
20260505071526 47 164 0.0 0.0 0.00 0.10 0.00 92 994.8
20260505070024 47 164 0.0 0.0 0.00 0.10 0.00 92 994.7
20260505064532 47 165 0.0 0.0 0.00 0.10 0.00 92 994.7
20260505063021 47 164 0.0 0.0 0.00 0.10 0.00 92 994.8
20260505061520 47 165 0.0 3.5 0.00 0.10 0.00 91 994.8
20260505060019 47 239 0.0 0.9 0.00 0.10 0.00 91 994.9
20260505054537 47 240 0.0 0.0 0.01 0.10 0.10 91 995.0
20260505053018 47 359 0.0 1.7 0.02 0.10 0.10 91 994.7
20260505051519 47 248 0.0 0.9 0.02 0.10 0.10 91 994.7
20260505041514 47 359 0.0 5.2 0.04 0.08 0.08 89 995.3
20260505040013 47 252 0.0 4.3 0.03 0.07 0.07 87 995.2
20260505034512 48 262 2.6 7.8 0.01 0.05 0.05 84 995.0
20260505033011 51 266 3.5 9.6 0.00 0.04 0.04 76 994.7
20260505031504 51 257 0.0 4.3 0.00 0.04 0.04 73 994.1
20260505030008 51 275 0.0 1.7 0.00 0.04 0.04 74 993.7
20260505024502 51 274 0.0 0.0 0.01 0.04 0.04 75 993.2
20260505023002 50 274 0.0 0.0 0.01 0.04 0.04 78 993.0
20260505021501 50 274 0.0 0.0 0.01 0.04 0.04 78 992.8
20260505020109 50 275 0.0 0.0 0.01 0.04 0.04 75 992.9
20260505014603 51 274 0.0 0.0 0.00 0.03 0.03 76 992.5
20260505013059 50 274 0.0 0.0 0.02 0.03 0.03 74 992.4
20260505011603 51 359 0.0 0.0 0.02 0.03 0.03 75 992.2
20260505010111 51 276 0.0 8.7 0.02 0.03 0.03 72 992.2
20260505004624 53 338 1.7 12.2 0.02 0.03 0.03 68 992.5
20260505003059 57 359 6.1 15.6 0.01 0.01 0.01 53 992.1
20260505001553 57 359 2.6 7.8 0.01 0.01 0.01 48 991.7
20260504234550 57 260 7.0 19.1 0.01 0.01 0.01 51 990.8
20260504233050 61 274 4.3 11.3 0.00 0.00 0.00 37 990.5
20260504231618 62 329 6.1 19.1 0.00 0.00 0.00 33 990.6
20260504230047 63 289 7.0 12.2 0.00 0.00 0.00 32 990.2
20260504224546 63 274 5.2 12.2 0.00 0.00 0.00 31 990.0
20260504223048 64 330 7.0 17.4 0.00 0.00 0.00 30 989.9
20260504221618 63 354 7.0 13.0 0.00 0.00 0.00 30 989.8
20260504220045 65 317 6.1 17.4 0.00 0.00 0.00 28 989.7
20260504214544 66 347 4.3 9.6 0.00 0.00 0.00 24 989.2
20260504213045 66 348 3.5 9.6 0.00 0.00 0.00 24 989.4